Temp
-8 -8 -8 -8 -8 -8 -8 -7 -7 -6 -6 -6 -6 -6 -6 -6 -6 -6 -6 -5 -5 -6 -5 -5 -5 -5 -6 -6 -5 -5 -4 -4 -4 -4 -4 -6 -5 -6 -6 -5 -7 -8 -8 -8 -7
-8 -7 -7 -7 -7 -8 -8 -7 -7 -7 -6 -6 -6 -6 -6 -6 -6 -6 -6 -6 -6 -6 -6 -6 -6 -6 -6 -6 -5 -5 -5 -5 -5 -5 -5 -5 -5 -6 -5 -5 -6 -7 -8 -8 -8
-7 -7 -7 -7 -7 -7 -7 -7 -7 -7 -6 -6 -6 -6 -6 -6 -6 -6 -6 -6 -6 -6 -6 -6 -6 -6 -6 -6 -6 -5 -5 -5 -5 -5 -5 -5 -5 -5 -5 -5 -6 -7 -8 -8 -7
-7 -7 -7 -7 -6 -6 -6 -6 -6 -6 -6 -6 -6 -6 -6 -6 -6 -6 -6 -6 -6 -6 -6 -6 -6 -6 -6 -6 -6 -6 -6 -5 -6 -5 -5 -5 -5 -5 -5 -5 -6 -7 -8 -8 -8
-7 -7 -7 -7 -6 -6 -6 -6 -6 -6 -6 -6 -6 -6 -6 -6 -6 -6 -6 -6 -6 -6 -6 -6 -6 -6 -6 -6 -6 -6 -6 -6 -6 -6 -6 -6 -5 -6 -6 -6 -6 -7 -7 -8 -9
-8 -7 -7 -7 -6 -6 -6 -6 -6 -6 -6 -6 -6 -6 -6 -6 -6 -6 -6 -6 -6 -6 -6 -6 -6 -6 -6 -7 -7 -7 -6 -7 -7 -7 -7 -7 -6 -6 -6 -7 -7 -8 -9 -9 -9
-8 -7 -7 -7 -7 -6 -6 -6 -6 -6 -6 -6 -6 -6 -6 -6 -6 -6 -6 -6 -6 -6 -6 -6 -6 -6 -7 -8 -8 -8 -8 -9 -9 -9 -9 -9 -7 -7 -7 -7 -8 -8 -8 -10 -9
-8 -8 -8 -7 -7 -6 -6 -6 -6 -6 -6 -6 -6 -6 -6 -6 -6 -6 -6 -6 -7 -7 -7 -7 -8 -8 -8 -9 -10 -10 -10 -10 -11 -11 -11 -11 -7 -9 -9 -9 -9 -9 -9 -9 -10
-8 -8 -8 -7 -7 -7 -7 -6 -6 -6 -6 -6 -6 -6 -6 -6 -7 -6 -7 -7 -7 -7 -8 -8 -9 -9 -10 -10 -11 -12 -11 -12 -12 -14 -14 -13 -11 -11 -11 -12 -11 -10 -9 -10 -10
-8 -8 -8 -7 -7 -7 -7 -7 -7 -7 -7 -7 -7 -7 -7 -7 -7 -7 -7 -7 -8 -9 -9 -9 -9 -10 -12 -13 -13 -14 -14 -14 -14 -14 -15 -14 -14 -14 -14 -14 -13 -13 -13 -11 -11
-8 -8 -8 -7 -7 -7 -7 -7 -7 -8 -7 -7 -7 -8 -7 -8 -8 -8 -9 -9 -9 -9 -10 -10 -11 -13 -15 -15 -15 -15 -15 -15 -15 -15 -15 -14 -14 -14 -14 -14 -14 -14 -14 -13 -12
-8 -8 -8 -8 -7 -7 -7 -7 -7 -7 -7 -8 -8 -8 -9 -9 -10 -10 -9 -10 -10 -11 -11 -11 -13 -16 -16 -16 -16 -16 -16 -15 -15 -15 -14 -14 -14 -14 -13 -14 -14 -14 -15 -15 -14
-8 -8 -8 -8 -8 -7 -7 -7 -7 -7 -8 -8 -8 -9 -9 -10 -10 -10 -10 -10 -11 -12 -12 -15 -17 -17 -17 -16 -16 -16 -16 -16 -16 -15 -15 -16 -16 -16 -16 -17 -16 -17 -17 -17 -18
-9 -9 -9 -9 -9 -8 -8 -8 -8 -8 -8 -8 -9 -9 -10 -11 -10 -10 -11 -12 -12 -12 -13 -15 -16 -16 -16 -17 -17 -16 -17 -16 -15 -15 -15 -16 -16 -16 -18 -18 -18 -18 -18 -18 -18
-9 -9 -9 -9 -9 -9 -9 -9 -9 -9 -10 -10 -10 -11 -11 -11 -11 -12 -12 -12 -13 -13 -14 -15 -15 -16 -16 -16 -16 -15 -16 -16 -15 -15 -16 -16 -17 -15 -18 -17 -17 -18 -19 -18 -18
-10 -10 -10 -10 -10 -10 -10 -10 -10 -10 -11 -12 -12 -11 -11 -11 -12 -13 -13 -13 -13 -13 -14 -14 -15 -15 -15 -16 -16 -16 -16 -16 -16 -16 -15 -16 -18 -16 -17 -17 -18 -18 -19 -19 -19
-11 -10 -10 -10 -10 -11 -11 -10 -11 -12 -12 -12 -12 -12 -11 -12 -13 -14 -14 -14 -14 -14 -15 -15 -17 -17 -16 -16 -16 -17 -17 -16 -16 -16 -15 -17 -17 -15 -17 -18 -18 -18 -18 -19 -19
-11 -11 -11 -11 -11 -11 -11 -11 -12 -12 -12 -12 -12 -12 -12 -12 -14 -14 -14 -14 -15 -15 -15 -15 -14 -17 -18 -17 -15 -17 -18 -18 -17 -16 -16 -16 -16 -16 -17 -18 -18 -17 -17 -18 -18
-11 -11 -11 -11 -11 -11 -11 -12 -12 -12 -13 -12 -13 -13 -13 -14 -14 -15 -15 -14 -15 -15 -15 -14 -15 -16 -17 -17 -17 -16 -17 -18 -18 -17 -16 -15 -15 -16 -17 -18 -18 -18 -18 -18 -18
-11 -11 -12 -12 -12 -12 -12 -13 -12 -13 -13 -14 -13 -13 -13 -13 -14 -16 -15 -15 -15 -15 -15 -15 -14 -16 -17 -17 -17 -17 -16 -17 -18 -18 -17 -16 -16 -16 -17 -17 -17 -18 -18 -18 -18
-12 -12 -12 -12 -12 -13 -13 -13 -13 -13 -13 -14 -13 -13 -14 -14 -15 -16 -15 -15 -15 -15 -16 -16 -15 -16 -16 -16 -17 -18 -18 -18 -18 -18 -18 -17 -16 -16 -17 -18 -18 -18 -18 -19 -19
-13 -12 -12 -12 -13 -13 -13 -13 -13 -14 -14 -14 -14 -14 -14 -14 -15 -15 -15 -15 -15 -15 -15 -16 -15 -15 -16 -17 -17 -18 -18 -19 -19 -19 -19 -19 -15 -17 -18 -18 -17 -17 -18 -18 -18
-13 -13 -12 -12 -13 -13 -13 -14 -14 -14 -14 -14 -14 -14 -14 -15 -14 -15 -15 -16 -15 -16 -16 -16 -16 -15 -16 -16 -17 -17 -18 -18 -18 -19 -18 -19 -16 -19 -18 -19 -17 -17 -18 -18 -19
-13 -13 -13 -13 -13 -13 -13 -14 -14 -14 -14 -14 -15 -14 -14 -15 -15 -15 -15 -15 -15 -16 -16 -15 -16 -16 -17 -17 -16 -16 -17 -17 -18 -17 -17 -18 -18 -18 -18 -18 -18 -18 -18 -18 -18
-13 -13 -13 -13 -14 -14 -13 -14 -14 -14 -14 -14 -15 -15 -15 -15 -15 -16 -16 -16 -16 -16 -16 -16 -16 -16 -17 -16 -17 -16 -16 -17 -17 -18 -18 -17 -18 -19 -18 -17 -17 -17 -18 -18 -17
-13 -13 -14 -14 -13 -13 -14 -14 -14 -15 -15 -14 -15 -15 -15 -15 -15 -15 -16 -16 -16 -16 -16 -16 -16 -16 -17 -17 -16 -16 -16 -17 -18 -18 -18 -18 -18 -19 -18 -17 -17 -17 -18 -17 -17
-14 -14 -13 -14 -14 -13 -14 -14 -14 -14 -15 -15 -15 -15 -15 -16 -16 -16 -16 -16 -16 -16 -16 -16 -16 -16 -16 -16 -17 -17 -17 -17 -18 -18 -18 -17 -18 -18 -18 -17 -17 -17 -17 -17 -16
Height
5850 5849 5847 5846 5845 5843 5841 5841 5842 5843 5843 5845 5846 5847 5848 5849 5848 5848 5848 5848 5847 5846 5846 5845 5845 5845 5846 5845 5845 5845 5845 5850 5853 5851 5853 5857 5857 5860 5863 5868 5872 5872 5868 5867 5863
5852 5850 5848 5846 5845 5843 5843 5843 5842 5841 5841 5842 5843 5845 5846 5845 5844 5843 5844 5842 5841 5841 5840 5839 5838 5838 5838 5837 5837 5835 5837 5840 5841 5840 5841 5842 5844 5851 5853 5857 5863 5865 5860 5858 5857
5853 5851 5849 5846 5844 5842 5841 5841 5840 5840 5840 5841 5841 5841 5841 5839 5838 5837 5836 5836 5835 5833 5832 5831 5830 5830 5829 5828 5827 5827 5828 5829 5829 5829 5827 5829 5833 5836 5842 5848 5849 5851 5851 5848 5850
5852 5850 5848 5846 5845 5843 5842 5840 5839 5839 5839 5839 5838 5837 5837 5835 5835 5831 5830 5829 5826 5825 5824 5822 5820 5819 5818 5817 5816 5815 5814 5814 5815 5813 5813 5816 5816 5824 5829 5836 5832 5836 5839 5840 5836
5850 5849 5847 5845 5844 5842 5841 5840 5839 5838 5836 5834 5833 5832 5831 5830 5827 5824 5823 5821 5819 5816 5814 5811 5809 5808 5806 5804 5802 5801 5802 5800 5800 5799 5798 5799 5803 5806 5817 5822 5823 5824 5827 5830 5832
5849 5847 5845 5844 5842 5841 5839 5838 5836 5835 5833 5831 5828 5826 5825 5824 5820 5817 5814 5812 5809 5805 5802 5800 5796 5794 5792 5790 5787 5787 5786 5786 5785 5784 5780 5780 5786 5784 5797 5801 5803 5810 5816 5819 5820
5847 5846 5844 5842 5840 5838 5836 5835 5833 5830 5829 5826 5823 5820 5817 5817 5813 5810 5806 5802 5798 5794 5790 5786 5782 5779 5775 5773 5770 5768 5770 5770 5773 5767 5763 5763 5766 5771 5774 5777 5782 5786 5793 5799 5805
5846 5844 5841 5839 5837 5835 5833 5830 5828 5825 5824 5821 5817 5813 5809 5807 5805 5801 5796 5792 5789 5784 5780 5774 5767 5763 5759 5755 5753 5751 5749 5750 5754 5747 5749 5744 5750 5755 5754 5753 5757 5764 5771 5779 5785
5843 5841 5838 5836 5834 5831 5828 5825 5822 5819 5817 5813 5809 5805 5802 5798 5795 5790 5785 5779 5775 5770 5763 5758 5754 5749 5745 5740 5738 5733 5731 5730 5735 5733 5731 5730 5730 5736 5738 5737 5735 5739 5748 5756 5763
5841 5838 5835 5832 5829 5827 5824 5820 5816 5811 5809 5805 5801 5800 5795 5790 5786 5781 5776 5769 5763 5758 5751 5743 5736 5731 5728 5723 5723 5720 5715 5715 5717 5727 5716 5717 5713 5719 5720 5719 5718 5721 5728 5736 5745
5837 5834 5831 5828 5825 5821 5819 5815 5812 5806 5802 5798 5794 5790 5784 5778 5772 5765 5759 5755 5750 5740 5734 5728 5723 5716 5713 5708 5707 5707 5705 5705 5709 5709 5702 5704 5703 5706 5705 5700 5702 5705 5706 5713 5722
5833 5830 5826 5822 5818 5815 5812 5808 5804 5802 5794 5789 5784 5780 5775 5768 5764 5757 5749 5741 5734 5728 5725 5716 5705 5700 5698 5698 5697 5696 5694 5696 5696 5694 5692 5688 5681 5682 5686 5682 5683 5686 5690 5693 5699
5829 5825 5820 5816 5811 5808 5803 5799 5793 5787 5784 5782 5776 5770 5764 5760 5751 5746 5738 5731 5724 5715 5705 5698 5695 5694 5692 5690 5689 5689 5685 5685 5682 5681 5678 5669 5664 5666 5664 5656 5660 5664 5671 5676 5681
5823 5820 5815 5810 5806 5799 5794 5788 5783 5778 5772 5770 5764 5759 5753 5749 5743 5734 5727 5723 5716 5709 5703 5698 5694 5690 5688 5687 5685 5681 5680 5677 5674 5670 5666 5660 5656 5661 5651 5652 5651 5652 5657 5662 5668
5818 5814 5809 5805 5799 5793 5788 5781 5776 5771 5765 5758 5751 5747 5743 5737 5732 5727 5723 5718 5713 5707 5702 5697 5692 5686 5682 5679 5677 5674 5671 5668 5666 5662 5658 5658 5651 5650 5647 5645 5643 5644 5645 5652 5658
5813 5809 5805 5799 5794 5788 5782 5776 5772 5766 5760 5757 5749 5743 5739 5731 5725 5721 5717 5711 5707 5703 5697 5693 5686 5680 5676 5675 5672 5667 5662 5661 5659 5655 5649 5654 5645 5644 5643 5642 5641 5639 5638 5639 5644
5809 5804 5799 5794 5789 5784 5778 5773 5767 5763 5757 5751 5746 5739 5733 5727 5720 5714 5710 5706 5702 5697 5692 5688 5681 5674 5669 5665 5663 5658 5654 5650 5648 5646 5643 5645 5637 5637 5642 5639 5636 5637 5636 5635 5636
5803 5799 5794 5789 5784 5779 5774 5767 5762 5756 5750 5744 5739 5733 5727 5722 5715 5711 5704 5700 5695 5690 5684 5680 5679 5672 5663 5657 5652 5654 5648 5643 5635 5636 5635 5635 5628 5633 5631 5629 5628 5628 5630 5630 5630
5799 5793 5790 5784 5780 5775 5769 5764 5758 5751 5746 5740 5734 5727 5721 5714 5707 5704 5697 5694 5689 5686 5680 5673 5673 5666 5656 5652 5646 5645 5640 5638 5626 5628 5621 5622 5622 5624 5624 5621 5619 5617 5617 5617 5620
5795 5789 5785 5780 5774 5770 5764 5759 5752 5746 5740 5733 5728 5722 5716 5708 5701 5697 5694 5689 5684 5678 5673 5668 5663 5662 5654 5646 5640 5633 5634 5631 5624 5615 5612 5612 5610 5610 5611 5610 5610 5608 5607 5607 5607
5789 5785 5780 5775 5770 5764 5760 5754 5747 5741 5735 5729 5722 5715 5709 5702 5694 5691 5688 5684 5680 5676 5670 5663 5658 5656 5646 5640 5637 5632 5623 5619 5617 5612 5602 5596 5596 5600 5600 5599 5599 5596 5595 5597 5596
5784 5779 5776 5772 5767 5760 5755 5749 5743 5737 5732 5726 5719 5712 5704 5697 5692 5688 5683 5678 5674 5669 5664 5658 5652 5646 5643 5634 5628 5623 5618 5613 5606 5600 5595 5589 5580 5589 5590 5586 5587 5583 5582 5582 5581
5781 5775 5770 5766 5761 5756 5749 5745 5739 5735 5729 5721 5713 5706 5699 5693 5687 5684 5679 5675 5668 5663 5657 5653 5647 5637 5633 5626 5618 5611 5607 5600 5595 5588 5582 5579 5574 5578 5576 5575 5574 5572 5573 5572 5568
5775 5771 5766 5760 5755 5750 5746 5740 5735 5729 5722 5715 5708 5701 5694 5688 5683 5678 5673 5668 5663 5659 5654 5646 5643 5635 5625 5618 5611 5604 5597 5590 5582 5575 5571 5565 5561 5564 5567 5562 5565 5564 5563 5562 5557
5768 5763 5759 5754 5750 5744 5739 5734 5728 5723 5718 5711 5707 5697 5688 5683 5678 5672 5668 5664 5659 5654 5649 5644 5638 5630 5623 5614 5604 5596 5588 5581 5573 5567 5559 5557 5551 5553 5548 5550 5552 5555 5555 5552 5549
5760 5757 5753 5748 5744 5739 5733 5729 5723 5718 5712 5707 5701 5694 5685 5679 5670 5664 5662 5658 5654 5649 5644 5638 5632 5625 5615 5605 5596 5586 5579 5572 5565 5559 5553 5546 5546 5538 5537 5538 5541 5544 5545 5543 5541
5753 5750 5746 5742 5737 5733 5728 5723 5718 5710 5707 5699 5695 5689 5682 5675 5666 5659 5656 5652 5650 5644 5638 5633 5624 5615 5612 5602 5592 5585 5575 5563 5556 5550 5543 5537 5535 5531 5528 5526 5530 5533 5536 5538 5536
Wind_Speed
22 22 20 17 17 16 11 10 10 7 6 5 5 5 6 7 9 13 17 19 20 23 25 28 31 32 32 35 38 42 45 43 42 45 45 44 47 48 47 46 43 46 51 49 48
20 20 21 21 20 20 14 8 7 6 5 4 2 1 3 5 9 12 13 15 19 22 24 26 29 32 33 36 39 43 43 43 43 46 49 50 52 50 53 51 48 44 55 55 56
19 19 18 19 21 21 20 13 8 6 6 5 5 7 9 11 14 17 16 18 20 23 25 27 30 32 34 36 38 41 44 44 47 49 52 53 53 54 54 54 55 55 55 59 61
19 19 19 18 18 18 19 18 14 9 10 10 11 12 13 15 16 19 20 21 23 25 27 30 32 35 35 37 37 41 43 45 47 51 55 56 59 57 57 55 58 60 61 62 65
17 18 19 19 18 17 17 16 16 15 15 17 19 18 19 18 20 24 25 26 27 30 32 34 35 37 38 41 42 43 42 47 49 52 57 60 61 60 58 59 58 59 63 65 65
18 18 19 18 19 19 19 18 17 17 18 19 22 23 23 22 25 28 31 32 33 36 37 38 41 42 44 43 44 44 48 45 47 50 56 59 61 65 64 62 64 61 62 67 71
18 18 18 19 20 19 20 20 21 21 21 23 26 26 26 27 28 32 35 38 40 42 44 47 49 50 51 50 49 51 49 47 45 49 55 58 62 63 64 66 69 68 68 73 78
18 18 19 20 21 22 22 23 24 24 24 25 29 30 29 29 32 35 39 41 43 46 47 49 53 55 56 55 53 54 52 49 44 50 52 58 63 59 60 65 69 69 72 74 78
19 20 20 21 22 23 24 25 26 27 27 29 31 30 30 31 35 40 45 48 49 50 52 54 56 56 54 55 52 47 52 49 46 44 48 52 58 56 56 59 65 68 72 75 78
20 21 22 23 23 24 25 26 28 33 32 32 31 31 32 35 39 43 45 47 48 49 52 55 57 57 49 47 48 44 47 48 47 39 47 48 52 50 52 56 60 62 63 67 69
21 22 23 24 25 27 28 30 31 32 32 32 31 32 35 39 42 45 46 47 49 52 51 51 50 44 38 41 43 41 39 39 34 35 44 46 52 54 56 60 61 62 63 64 67
24 26 27 29 30 30 30 32 33 31 33 34 36 38 35 35 38 42 43 46 46 45 44 48 45 33 33 33 32 31 32 30 31 36 42 47 55 60 64 68 66 68 65 65 66
29 30 32 31 32 35 36 36 37 38 37 35 36 35 37 35 41 37 42 40 42 45 46 37 15 18 23 27 28 28 33 32 36 37 41 44 47 42 41 47 54 60 61 58 59
31 29 30 33 36 38 39 39 41 42 39 38 37 36 35 35 35 40 36 37 39 36 32 26 22 21 20 21 25 29 30 32 32 35 38 38 40 16 27 32 32 40 64 58 58
31 33 35 35 38 39 40 41 43 38 39 40 40 38 37 38 39 34 30 31 32 28 24 19 22 23 22 24 27 31 33 33 32 34 36 31 30 18 17 23 29 28 34 62 54
34 34 35 38 38 38 38 40 37 35 37 31 33 33 35 40 38 30 28 31 32 27 23 24 22 24 26 26 28 31 32 34 33 33 38 22 33 9 16 16 19 26 29 38 52
33 36 36 36 36 35 36 36 36 31 33 32 28 31 35 36 32 28 28 30 28 25 22 23 23 27 30 32 32 30 33 35 35 35 36 27 39 27 21 22 24 24 27 36 43
33 36 35 32 31 33 33 36 34 33 30 31 30 33 35 37 34 27 29 25 25 25 29 27 19 20 27 34 35 26 31 37 41 39 38 37 39 26 27 28 30 26 28 29 36
33 33 29 29 30 33 35 34 33 30 29 31 32 34 34 35 35 26 27 24 21 24 29 29 21 16 27 31 34 28 30 33 43 39 44 39 35 31 26 28 28 31 28 25 35
30 27 27 28 33 34 35 34 33 30 33 35 34 34 35 38 33 24 22 23 23 28 31 32 23 19 21 29 33 36 32 32 39 47 46 42 42 34 34 30 29 33 36 37 38
25 25 27 29 32 33 34 35 33 31 33 36 36 36 37 38 28 22 24 22 21 23 28 33 31 24 27 30 27 29 35 37 38 42 48 49 46 39 37 38 35 37 37 34 38
24 28 25 28 31 33 34 34 34 34 34 35 35 36 38 36 22 19 22 23 27 29 28 29 29 28 28 32 31 28 25 27 32 40 47 49 52 45 44 45 39 42 40 41 39
24 28 27 30 30 31 35 35 32 31 33 35 38 38 39 35 31 18 21 23 27 26 30 27 30 37 36 35 34 33 32 33 37 46 51 53 56 53 54 52 47 46 48 41 35
26 25 28 30 31 33 34 35 35 34 35 36 38 39 41 36 30 23 23 25 27 26 25 29 30 34 36 36 36 34 33 33 37 40 39 45 52 60 53 51 48 44 41 32 31
27 28 29 33 34 35 37 37 38 37 35 35 34 38 41 41 31 24 23 24 23 25 25 27 30 34 29 35 36 35 34 31 32 32 36 35 41 36 49 48 40 32 33 34 33
29 30 31 34 34 35 36 37 38 37 37 34 35 37 38 38 38 30 20 23 23 24 25 28 31 34 33 40 38 33 35 35 29 28 32 36 33 38 38 39 41 33 30 30 25
29 30 31 32 34 35 36 36 36 38 36 37 36 36 38 35 32 24 21 24 21 22 25 29 33 37 34 40 34 29 37 40 34 30 34 34 31 27 29 34 30 29 31 24 21
Wind_Direction
44 46 51 54 58 55 56 72 96 108 114 133 153 168 191 214 235 243 246 248 251 254 256 255 255 257 257 257 255 254 255 255 254 253 251 246 242 241 238 231 228 227 236 243 243
36 37 39 41 44 42 53 70 66 71 66 49 27 301 281 279 270 268 270 267 265 262 261 261 261 260 259 258 260 260 261 261 257 254 252 250 247 243 242 241 235 232 239 239 247
24 27 27 27 29 32 33 33 32 23 16 356 330 321 316 308 296 295 291 288 284 279 274 270 268 267 267 267 266 265 266 264 262 258 256 251 248 248 244 242 240 234 233 239 242
9 12 15 14 16 18 21 22 14 337 319 310 308 302 301 299 300 295 294 296 293 288 283 278 275 272 273 272 272 272 271 267 264 262 261 258 256 248 245 241 241 239 235 232 240
356 357 2 3 3 360 0 0 359 353 335 315 306 298 301 300 300 298 298 296 293 291 289 284 279 278 278 276 275 275 273 271 269 266 263 259 256 253 246 244 239 239 239 237 228
347 347 348 349 349 349 345 337 334 332 331 333 324 303 297 298 299 303 303 297 295 297 293 289 287 285 285 286 283 280 281 277 271 267 263 260 256 255 250 240 237 236 234 235 233
343 341 338 337 339 337 333 332 326 322 317 320 319 316 297 295 297 303 304 301 298 299 297 294 292 290 290 291 292 288 281 278 272 261 260 260 259 256 254 248 240 237 228 225 228
342 338 335 333 332 330 326 326 325 322 318 315 315 313 306 296 295 299 302 301 297 294 294 295 294 295 295 292 290 288 284 276 266 262 259 257 262 256 254 251 248 238 235 229 225
342 338 335 333 332 331 329 327 323 320 318 317 317 314 306 301 297 298 300 299 296 293 294 296 295 295 293 291 288 281 280 276 271 262 261 259 261 260 257 256 255 249 237 232 227
344 341 337 335 333 330 328 325 323 320 323 319 314 310 305 301 296 294 292 292 297 303 304 302 298 295 290 284 281 273 273 273 275 265 263 263 262 261 258 258 258 259 253 243 232
342 340 337 334 332 330 327 327 326 322 317 314 313 310 309 305 301 304 303 305 307 310 308 302 296 288 277 269 272 275 273 273 270 266 263 261 264 262 261 261 258 258 259 252 243
342 340 337 334 332 331 329 328 322 320 317 319 316 315 315 308 303 309 313 316 313 314 315 307 301 279 272 272 274 274 277 279 277 280 284 284 277 269 266 265 259 256 254 255 254
338 336 334 334 333 331 329 324 322 323 322 319 317 315 310 312 318 323 319 320 325 328 328 335 306 277 274 271 276 281 283 283 287 289 290 291 290 300 281 264 255 244 242 235 239
335 339 336 333 330 329 328 328 328 325 322 324 321 321 321 332 324 325 324 327 326 328 334 336 326 303 288 279 279 275 280 280 289 293 293 285 299 281 275 271 270 252 233 235 233
336 335 332 332 331 331 330 331 325 324 335 330 328 326 333 330 326 327 323 322 320 323 328 325 313 301 291 284 287 292 284 281 283 286 287 298 294 291 279 257 266 257 251 236 243
332 333 334 332 331 331 330 327 327 337 332 332 326 328 328 326 327 324 319 317 317 316 322 314 305 291 285 281 284 288 284 281 279 284 284 291 288 319 253 267 265 250 247 239 239
330 331 331 331 330 333 333 329 337 335 332 331 327 323 325 329 320 311 310 315 316 315 321 318 306 298 291 288 288 285 280 277 273 274 282 280 275 281 282 272 277 261 257 249 237
328 327 329 328 334 333 333 339 341 335 337 333 328 324 325 327 320 316 313 321 319 325 327 332 332 311 288 290 293 284 281 277 280 278 277 274 270 285 284 275 271 267 272 259 247
326 324 328 327 329 332 332 342 340 339 338 334 330 329 328 330 326 319 319 322 318 322 326 328 356 331 299 293 292 289 282 274 274 274 277 280 278 277 270 271 277 285 281 262 251
324 324 326 328 330 331 341 342 345 343 344 342 334 330 334 333 328 316 320 318 320 322 323 324 332 332 308 292 291 293 293 277 271 278 281 279 283 280 281 285 276 277 275 272 270
321 323 324 328 330 336 338 340 345 346 346 341 336 336 340 339 327 319 319 321 322 322 321 319 325 335 319 312 303 281 287 284 282 277 281 285 278 274 279 280 277 275 273 272 271
319 316 321 326 328 332 335 342 347 348 343 340 337 338 342 343 330 316 315 319 322 328 327 321 328 326 326 320 314 301 290 276 267 268 264 268 279 279 276 277 280 283 286 291 275
312 317 319 324 326 328 335 341 344 338 338 342 341 338 340 344 337 312 311 317 321 325 328 326 335 331 336 330 323 313 307 290 275 262 263 263 268 271 281 280 283 286 291 291 284
312 313 314 319 322 326 331 334 336 337 336 339 340 336 335 340 341 316 319 319 320 322 323 322 331 333 339 330 323 324 314 301 290 287 284 273 274 264 267 269 272 280 281 287 274
313 315 316 317 320 321 325 329 329 335 334 334 338 335 333 337 335 313 307 308 309 320 324 323 332 332 341 331 324 323 319 307 290 289 283 287 280 285 267 264 265 267 273 274 259
313 315 315 315 317 320 322 325 326 330 331 332 336 333 331 336 335 333 305 308 313 319 327 324 327 336 352 339 329 327 329 320 303 287 287 286 290 280 275 266 258 264 259 272 262
311 313 315 313 315 317 320 322 323 326 330 329 333 334 331 337 333 328 317 315 318 326 324 327 334 343 348 344 341 327 328 326 314 291 288 297 301 292 285 273 264 247 252 272 257